Flag for Austria Weather past 2 weeks in St. Pölten, Lower Austria, Austria

Now
39 °F

Passing clouds.


Feels Like: 33 °F
Forecast: 33 / 48 °F
Wind: 9 mph from Northwest

Location: Tulln Airport

Current Time: Mar 6, 2015 at 1:21:22 AM

Latest Report: Mar 5, 2015 at 9:50 PM


Visibility: 15 mi

Pressure: 30.48 "Hg

Humidity: 65%

Dew point: 28 °F

Location of St. PöltenLocation

Historic Weather in St. Pölten — Graph

°F

St. Pölten temperature yesterday

Maximum temperature yesterday: 45 °F (at 11:50 AM)
Minimum temperature yesterday: 34 °F (at 4:50 AM)
Average temperature yesterday: 40 °F

Past Weeks' High & Low Weather Summary

 TemperatureHumidityPressure
High52 °F (Feb 20, 1:50 PM)100% (Feb 20, 7:50 AM)30.66 "Hg (Feb 20, 7:50 AM)
Low23 °F (Feb 20, 4:50 AM)43% (Mar 3, 12:50 PM)29.56 "Hg (Feb 21, 7:50 PM)
Average40 °F78%30.00 "Hg
* Reported Feb 18 9:50 PM — Mar 5 9:50 PM, St. Pölten, Weather by CustomWeather, © 2015

Note: Actual official high and low records may vary slightly from our data, if they occured in-between our weather recording intervals... More about our weather records

Advertising

St. Pölten weather history for previous 24 hours

 ConditionsComfort  
Time TempWeatherWind HumidityBarometerVisibility
9:50 PM
Thu, Mar 5
39 °FPassing clouds.9 mph65%30.48 "Hg16 mi
8:50 PM39 °FPartly cloudy.8 mph70%30.48 "Hg16 mi
7:50 PM41 °FPassing clouds.8 mph66%30.48 "Hg16 mi
6:50 PM41 °FPassing clouds.7 mph66%30.45 "Hg16 mi
5:50 PM41 °FPassing clouds.9 mph61%30.45 "Hg16 mi
4:50 PM43 °FPartly sunny.9 mph57%30.42 "Hg16 mi
3:50 PM43 °FBroken clouds.10 mph66%30.39 "Hg16 mi
2:50 PM43 °FBroken clouds.14 mph61%30.39 "Hg16 mi
1:50 PM45 °FBroken clouds.10 mph57%30.39 "Hg16 mi
12:50 PM45 °FBroken clouds.13 mph57%30.39 "Hg16 mi
11:50 AM45 °FScattered clouds.13 mph57%30.39 "Hg16 mi
10:50 AM43 °FBroken clouds.10 mph61%30.42 "Hg16 mi
9:50 AM41 °FScattered clouds.10 mph66%30.42 "Hg16 mi
8:50 AM39 °FScattered clouds.12 mph75%30.42 "Hg16 mi
7:50 AM36 °FScattered clouds.7 mph87%30.39 "Hg12 mi
6:50 AM34 °FScattered clouds.8 mph87%30.39 "Hg12 mi
5:50 AM34 °FPassing clouds.8 mph87%30.36 "Hg16 mi
4:50 AM34 °FPassing clouds.5 mph87%30.36 "Hg16 mi
Weather by CustomWeather, © 2015

See weather overviewHow to use our weather pages